QPF
0.00 0.00 0.00 0.00 0.00 0.00 0.00 0.00 0.00 0.00 0.00 0.00 0.00 0.00 0.00 0.00 0.00 0.00 0.00 0.00 0.00 0.00 0.00 0.00 0.00 0.00 0.00 0.00 0.00 0.00 0.00 0.00 0.00 0.00 0.00 0.00 0.00 0.00 0.00 0.00 0.00 0.00 0.00 0.00
0.00 0.00 0.00 0.00 0.00 0.00 0.00 0.00 0.00 0.00 0.00 0.00 0.00 0.00 0.00 0.00 0.00 0.00 0.00 0.00 0.00 0.00 0.00 0.00 0.00 0.00 0.00 0.00 0.00 0.00 0.00 0.00 0.00 0.00 0.00 0.00 0.00 0.00 0.00 0.00 0.00 0.00 0.00 0.00
0.00 0.00 0.00 0.00 0.00 0.00 0.00 0.00 0.00 0.00 0.00 0.00 0.00 0.00 0.00 0.00 0.00 0.00 0.00 0.00 0.00 0.00 0.00 0.00 0.00 0.00 0.00 0.00 0.00 0.00 0.00 0.00 0.00 0.00 0.00 0.00 0.00 0.00 0.00 0.00 0.00 0.00 0.00 0.00
0.00 0.00 0.00 0.00 0.00 0.00 0.00 0.00 0.00 0.00 0.00 0.00 0.00 0.00 0.00 0.00 0.00 0.00 0.00 0.00 0.00 0.00 0.00 0.00 0.00 0.00 0.00 0.00 0.00 0.00 0.00 0.00 0.00 0.00 0.00 0.00 0.00 0.00 0.00 0.00 0.00 0.00 0.00 0.00
0.00 0.00 0.00 0.00 0.00 0.00 0.00 0.00 0.00 0.00 0.00 0.00 0.00 0.00 0.00 0.00 0.00 0.00 0.00 0.00 0.00 0.00 0.00 0.00 0.00 0.00 0.00 0.00 0.00 0.00 0.00 0.00 0.00 0.00 0.00 0.00 0.00 0.00 0.00 0.00 0.00 0.00 0.00 0.00
0.00 0.00 0.00 0.00 0.00 0.00 0.00 0.00 0.00 0.00 0.00 0.00 0.00 0.00 0.00 0.00 0.00 0.00 0.00 0.00 0.00 0.00 0.00 0.00 0.00 0.00 0.00 0.00 0.00 0.00 0.00 0.00 0.00 0.00 0.00 0.00 0.00 0.00 0.00 0.00 0.00 0.00 0.00 0.00
0.00 0.00 0.00 0.00 0.00 0.00 0.00 0.00 0.00 0.00 0.00 0.00 0.00 0.00 0.00 0.00 0.00 0.00 0.00 0.00 0.00 0.00 0.00 0.00 0.00 0.00 0.00 0.00 0.00 0.00 0.00 0.00 0.00 0.00 0.00 0.00 0.00 0.00 0.00 0.00 0.00 0.00 0.00 0.00
0.00 0.00 0.00 0.00 0.00 0.00 0.00 0.00 0.00 0.00 0.00 0.00 0.00 0.00 0.00 0.00 0.00 0.00 0.00 0.00 0.00 0.00 0.00 0.00 0.00 0.00 0.00 0.00 0.00 0.00 0.00 0.00 0.00 0.00 0.00 0.00 0.00 0.00 0.00 0.00 0.00 0.00 0.00 0.00
0.00 0.00 0.00 0.00 0.00 0.00 0.00 0.00 0.00 0.00 0.00 0.00 0.00 0.00 0.00 0.00 0.00 0.00 0.00 0.00 0.00 0.00 0.00 0.00 0.00 0.00 0.00 0.00 0.00 0.00 0.00 0.00 0.00 0.00 0.00 0.00 0.00 0.00 0.00 0.00 0.00 0.00 0.00 0.00
0.00 0.00 0.00 0.00 0.00 0.00 0.00 0.00 0.00 0.00 0.00 0.00 0.00 0.00 0.00 0.00 0.00 0.00 0.00 0.00 0.00 0.00 0.00 0.00 0.00 0.00 0.00 0.00 0.00 0.00 0.00 0.00 0.00 0.00 0.00 0.00 0.00 0.00 0.00 0.00 0.00 0.00 0.00 0.00
0.00 0.00 0.00 0.00 0.00 0.00 0.00 0.00 0.00 0.00 0.00 0.00 0.00 0.00 0.00 0.00 0.00 0.00 0.00 0.00 0.00 0.00 0.00 0.00 0.00 0.00 0.00 0.00 0.00 0.00 0.00 0.00 0.00 0.00 0.00 0.00 0.00 0.00 0.00 0.00 0.00 0.00 0.00 0.00
0.02 0.02 0.00 0.00 0.00 0.00 0.00 0.00 0.00 0.00 0.00 0.00 0.00 0.00 0.00 0.00 0.00 0.00 0.00 0.00 0.00 0.00 0.00 0.00 0.00 0.00 0.00 0.00 0.00 0.00 0.00 0.00 0.00 0.00 0.00 0.00 0.00 0.00 0.00 0.00 0.00 0.00 0.00 0.00
0.03 0.03 0.02 0.00 0.00 0.00 0.00 0.00 0.00 0.00 0.00 0.00 0.00 0.00 0.00 0.00 0.00 0.00 0.00 0.00 0.00 0.00 0.00 0.00 0.00 0.00 0.00 0.00 0.00 0.00 0.00 0.00 0.00 0.00 0.00 0.00 0.00 0.00 0.00 0.00 0.00 0.00 0.00 0.00
0.02 0.02 0.02 0.01 0.00 0.00 0.00 0.00 0.00 0.00 0.00 0.00 0.00 0.00 0.00 0.00 0.00 0.00 0.00 0.00 0.00 0.00 0.00 0.00 0.00 0.00 0.00 0.00 0.00 0.00 0.00 0.00 0.00 0.00 0.00 0.00 0.00 0.00 0.00 0.00 0.00 0.00 0.00 0.00
0.01 0.01 0.00 0.00 0.01 0.00 0.00 0.00 0.00 0.00 0.00 0.00 0.00 0.00 0.00 0.00 0.00 0.00 0.00 0.00 0.00 0.00 0.00 0.00 0.00 0.00 0.00 0.00 0.00 0.00 0.00 0.00 0.00 0.00 0.00 0.00 0.00 0.00 0.00 0.00 0.00 0.00 0.00 0.00
0.00 0.00 0.00 0.00 0.00 0.00 0.00 0.00 0.00 0.00 0.00 0.00 0.00 0.00 0.00 0.00 0.00 0.00 0.00 0.00 0.00 0.00 0.00 0.00 0.00 0.00 0.00 0.00 0.00 0.00 0.00 0.00 0.00 0.00 0.00 0.00 0.00 0.00 0.00 0.00 0.00 0.00 0.00 0.00
0.00 0.00 0.00 0.00 0.00 0.00 0.00 0.00 0.00 0.00 0.00 0.00 0.00 0.00 0.00 0.00 0.00 0.00 0.00 0.00 0.00 0.00 0.00 0.00 0.00 0.00 0.00 0.00 0.00 0.00 0.00 0.00 0.00 0.00 0.00 0.00 0.00 0.00 0.00 0.00 0.00 0.00 0.00 0.00
0.00 0.00 0.00 0.00 0.00 0.00 0.00 0.00 0.00 0.00 0.00 0.00 0.00 0.00 0.00 0.00 0.00 0.00 0.00 0.00 0.00 0.00 0.00 0.00 0.00 0.00 0.00 0.00 0.00 0.00 0.00 0.00 0.00 0.00 0.00 0.00 0.00 0.00 0.00 0.00 0.00 0.00 0.00 0.00
0.00 0.00 0.00 0.00 0.00 0.00 0.00 0.00 0.00 0.00 0.00 0.00 0.00 0.00 0.00 0.00 0.00 0.00 0.00 0.00 0.00 0.00 0.00 0.00 0.00 0.00 0.00 0.00 0.00 0.00 0.00 0.00 0.00 0.00 0.00 0.00 0.00 0.00 0.00 0.00 0.00 0.00 0.00 0.00
0.00 0.00 0.00 0.00 0.00 0.00 0.00 0.00 0.00 0.00 0.00 0.00 0.00 0.00 0.00 0.00 0.00 0.00 0.00 0.00 0.00 0.00 0.00 0.00 0.00 0.00 0.00 0.00 0.00 0.00 0.00 0.00 0.00 0.00 0.00 0.00 0.00 0.00 0.00 0.00 0.00 0.00 0.00 0.00
0.00 0.00 0.00 0.00 0.00 0.00 0.00 0.00 0.00 0.00 0.00 0.00 0.00 0.00 0.00 0.00 0.00 0.00 0.00 0.00 0.00 0.00 0.00 0.00 0.00 0.00 0.00 0.00 0.00 0.00 0.00 0.00 0.00 0.00 0.00 0.00 0.00 0.00 0.00 0.00 0.00 0.00 0.00 0.00
0.00 0.00 0.00 0.00 0.00 0.00 0.00 0.00 0.00 0.00 0.00 0.00 0.00 0.00 0.00 0.00 0.00 0.00 0.00 0.00 0.00 0.00 0.00 0.00 0.00 0.00 0.00 0.00 0.00 0.00 0.00 0.00 0.00 0.00 0.00 0.00 0.00 0.00 0.00 0.00 0.00 0.00 0.00 0.00
0.00 0.00 0.00 0.00 0.00 0.00 0.00 0.00 0.00 0.00 0.00 0.00 0.00 0.00 0.00 0.00 0.00 0.00 0.00 0.00 0.00 0.00 0.00 0.00 0.00 0.00 0.00 0.00 0.00 0.00 0.00 0.00 0.00 0.00 0.00 0.00 0.00 0.00 0.00 0.00 0.00 0.00 0.00 0.00
0.00 0.00 0.00 0.00 0.00 0.00 0.00 0.00 0.00 0.00 0.00 0.00 0.00 0.00 0.00 0.00 0.00 0.00 0.00 0.00 0.00 0.00 0.00 0.00 0.00 0.00 0.00 0.00 0.00 0.00 0.00 0.00 0.00 0.00 0.00 0.00 0.00 0.00 0.00 0.00 0.00 0.00 0.00 0.00
0.00 0.00 0.00 0.00 0.00 0.00 0.00 0.00 0.00 0.00 0.00 0.00 0.00 0.00 0.00 0.00 0.00 0.00 0.00 0.00 0.00 0.00 0.00 0.00 0.00 0.00 0.00 0.00 0.00 0.00 0.00 0.00 0.00 0.00 0.00 0.00 0.00 0.00 0.00 0.00 0.00 0.00 0.00 0.00
0.00 0.00 0.00 0.00 0.00 0.00 0.00 0.00 0.00 0.00 0.00 0.00 0.00 0.00 0.00 0.00 0.00 0.00 0.00 0.00 0.00 0.00 0.00 0.00 0.00 0.00 0.00 0.00 0.00 0.00 0.00 0.00 0.00 0.00 0.00 0.00 0.00 0.00 0.00 0.00 0.00 0.00 0.00 0.00
MSLP
1015.68 1016.49 1016.07 1014.98 1015.55 1015.62 1016.06 1016.10 1015.66 1014.40 1013.64 1013.70 1012.69 1011.60 1011.01 1009.94 1009.09 1008.17 1007.74 1007.31 1006.57 1005.93 1004.77 1005.04 1005.58 1006.09 1006.78 1007.36 1007.86 1008.33 1008.91 1009.19 1010.43 1011.66 1012.79 1013.71 1013.34 1014.08 1014.73 1015.21 1015.86 1016.73 1017.40 1018.12
1016.60 1016.11 1015.36 1015.43 1015.80 1016.28 1016.22 1015.95 1015.24 1014.01 1013.42 1013.52 1012.46 1010.12 1010.07 1009.34 1008.06 1006.45 1005.95 1005.82 1005.22 1005.13 1005.01 1004.56 1005.01 1005.55 1006.17 1006.33 1006.77 1007.48 1007.95 1008.68 1008.98 1009.49 1010.28 1011.41 1012.31 1013.02 1013.25 1013.78 1014.37 1015.16 1016.29 1017.36
1015.60 1015.11 1015.00 1015.69 1015.82 1016.07 1015.68 1016.15 1014.89 1014.54 1014.06 1013.48 1012.19 1008.93 1008.21 1007.16 1007.00 1005.99 1005.06 1004.81 1005.19 1005.31 1004.96 1004.32 1004.91 1005.87 1006.27 1006.23 1006.27 1006.51 1006.75 1007.26 1007.81 1008.53 1009.58 1010.70 1011.68 1012.84 1013.50 1013.94 1014.53 1014.85 1015.20 1015.67
1015.14 1014.47 1014.72 1015.39 1015.74 1015.03 1014.87 1014.46 1014.43 1014.81 1015.28 1014.66 1013.31 1009.59 1008.06 1007.26 1006.36 1005.81 1004.58 1004.56 1004.56 1004.53 1004.71 1005.07 1004.97 1005.07 1005.44 1005.26 1005.29 1005.56 1006.22 1006.76 1007.52 1008.27 1008.74 1009.11 1009.40 1010.36 1010.23 1011.11 1012.43 1013.56 1014.36 1015.08
1014.17 1014.31 1014.47 1014.75 1014.22 1014.55 1013.87 1014.10 1014.60 1014.83 1015.24 1014.96 1013.80 1012.90 1006.66 1005.84 1005.89 1005.07 1004.66 1004.14 1004.31 1004.89 1005.19 1005.04 1004.89 1004.64 1004.23 1004.03 1004.45 1004.73 1005.07 1005.47 1006.34 1006.93 1007.38 1008.61 1009.13 1008.72 1008.85 1010.56 1012.05 1013.14 1013.94 1014.78
1014.24 1013.92 1013.77 1013.09 1013.05 1013.43 1013.40 1014.26 1015.13 1015.81 1015.75 1014.22 1012.59 1011.73 1007.38 1005.56 1005.13 1005.04 1004.57 1004.31 1004.81 1004.79 1005.02 1004.96 1004.67 1004.55 1004.35 1004.46 1004.76 1004.68 1005.04 1005.58 1006.01 1006.67 1007.31 1007.25 1007.90 1008.91 1009.67 1010.10 1011.32 1012.53 1013.49 1014.14
1013.85 1013.31 1012.76 1012.77 1013.19 1013.79 1014.11 1014.47 1016.00 1016.04 1016.14 1013.05 1011.08 1010.36 1006.91 1004.82 1004.36 1004.23 1004.40 1004.35 1004.90 1005.60 1005.79 1005.60 1004.98 1004.72 1004.48 1004.47 1004.56 1005.05 1005.32 1005.45 1006.08 1006.97 1007.62 1007.66 1007.63 1008.23 1008.94 1009.70 1010.48 1011.25 1012.39 1013.17
1013.94 1012.69 1012.23 1012.37 1012.45 1012.79 1013.88 1014.41 1015.15 1014.77 1014.42 1012.42 1011.36 1007.87 1005.11 1004.06 1003.61 1003.82 1004.44 1004.63 1005.23 1005.62 1005.79 1005.52 1005.29 1005.35 1004.88 1004.90 1004.80 1005.35 1005.63 1005.67 1005.78 1006.29 1007.38 1008.05 1008.42 1008.68 1008.99 1009.56 1009.67 1010.37 1010.71 1011.32
1013.42 1012.55 1011.85 1011.81 1011.93 1012.32 1013.59 1013.89 1013.40 1013.56 1013.29 1013.25 1009.70 1005.91 1004.63 1003.74 1003.95 1004.32 1004.65 1005.14 1006.08 1005.89 1005.43 1005.51 1005.52 1005.53 1005.45 1005.19 1004.99 1005.57 1006.07 1006.35 1006.35 1006.15 1006.02 1006.22 1007.03 1007.68 1007.86 1008.60 1009.14 1009.69 1010.19 1010.64
1013.11 1012.85 1011.92 1011.62 1012.12 1012.34 1012.62 1013.07 1013.46 1013.82 1013.52 1012.29 1009.25 1007.59 1004.38 1004.84 1005.19 1005.34 1005.65 1006.50 1006.80 1006.13 1005.93 1005.30 1005.73 1006.02 1005.76 1005.84 1005.35 1005.70 1005.71 1005.51 1005.66 1006.16 1006.22 1006.34 1006.02 1006.23 1007.09 1007.54 1008.30 1008.97 1009.35 1009.98
1013.31 1013.94 1012.48 1012.19 1012.05 1012.12 1012.74 1012.81 1013.34 1013.44 1012.50 1011.02 1009.52 1006.51 1004.50 1004.87 1005.53 1006.33 1007.17 1007.24 1007.15 1007.22 1007.57 1007.24 1007.46 1007.17 1007.44 1007.03 1006.54 1007.11 1007.25 1007.25 1007.27 1007.29 1006.85 1006.46 1006.57 1007.13 1007.01 1007.17 1007.52 1007.80 1008.24 1008.91
1014.21 1013.54 1013.47 1012.01 1011.52 1011.16 1011.56 1011.77 1012.31 1012.47 1011.19 1010.09 1008.55 1006.05 1003.73 1005.29 1006.04 1007.45 1008.64 1009.43 1009.31 1009.83 1009.86 1009.71 1009.15 1008.99 1008.55 1008.87 1008.31 1007.62 1007.28 1007.37 1007.16 1006.93 1006.52 1006.34 1006.45 1006.70 1006.96 1006.68 1006.76 1007.42 1007.62 1008.01
1014.03 1013.90 1013.39 1012.07 1012.21 1012.17 1011.90 1011.50 1011.80 1011.80 1011.17 1010.02 1009.11 1007.24 1007.03 1006.07 1008.00 1010.69 1011.23 1011.15 1010.83 1010.98 1010.84 1010.83 1010.52 1010.10 1009.87 1009.62 1009.60 1009.23 1008.29 1007.58 1007.20 1006.96 1006.42 1006.19 1006.05 1006.07 1006.08 1005.61 1006.01 1006.37 1007.21 1007.68
1014.82 1013.94 1014.17 1013.21 1013.04 1012.94 1012.99 1012.73 1012.87 1013.10 1012.13 1010.34 1009.73 1009.54 1010.08 1011.19 1011.55 1013.06 1013.21 1013.42 1012.96 1012.40 1012.37 1011.75 1011.31 1011.03 1010.70 1010.69 1010.49 1009.76 1009.32 1008.53 1008.15 1007.39 1006.69 1006.27 1005.88 1005.35 1005.30 1005.32 1004.98 1005.57 1005.73 1006.14
1015.80 1014.99 1015.05 1014.61 1014.79 1014.80 1014.20 1014.01 1013.64 1013.01 1012.60 1012.21 1011.41 1011.24 1011.57 1013.55 1014.21 1014.02 1014.09 1014.30 1014.11 1013.27 1012.90 1012.49 1012.20 1011.76 1011.35 1010.95 1010.66 1010.39 1009.93 1009.52 1008.66 1007.71 1007.02 1006.30 1005.50 1004.84 1004.52 1004.43 1004.29 1004.85 1005.17 1005.58
1017.22 1016.67 1016.48 1015.90 1015.26 1015.41 1014.61 1013.66 1012.98 1012.82 1012.23 1011.95 1012.61 1012.83 1014.49 1015.29 1015.54 1015.48 1015.01 1014.36 1014.00 1013.81 1013.28 1012.72 1012.42 1011.45 1011.27 1011.58 1011.34 1010.81 1010.13 1009.62 1008.94 1008.04 1007.45 1006.73 1005.72 1004.77 1004.31 1004.24 1003.97 1004.02 1004.14 1004.88
1018.93 1018.50 1018.48 1017.05 1016.36 1016.47 1014.70 1013.17 1013.05 1012.54 1012.45 1013.41 1013.87 1014.73 1015.75 1015.65 1015.55 1015.59 1015.00 1014.81 1014.22 1013.74 1013.51 1013.06 1013.12 1011.79 1011.68 1011.69 1011.33 1011.00 1010.28 1009.69 1009.35 1008.60 1007.80 1007.10 1006.60 1005.20 1004.14 1003.64 1003.27 1003.48 1003.20 1003.82
1018.65 1019.29 1019.82 1019.02 1018.98 1017.73 1014.17 1013.95 1014.25 1014.30 1014.77 1015.02 1015.51 1016.06 1016.07 1016.14 1016.19 1015.94 1015.31 1015.14 1015.04 1014.70 1013.74 1013.09 1012.45 1011.93 1011.88 1011.75 1011.23 1011.02 1010.16 1009.41 1009.02 1008.25 1007.46 1006.96 1006.36 1005.11 1004.26 1003.51 1003.55 1003.03 1003.03 1002.97
1018.81 1019.56 1020.46 1020.92 1020.27 1016.84 1015.57 1015.32 1015.47 1015.60 1015.98 1016.21 1016.33 1016.26 1016.21 1016.21 1016.10 1015.45 1014.82 1014.69 1014.48 1014.31 1013.87 1013.39 1013.08 1012.83 1012.44 1011.83 1010.79 1010.71 1010.05 1009.73 1008.96 1007.99 1007.49 1006.82 1005.59 1005.04 1004.20 1003.50 1003.42 1002.91 1003.03 1002.74
1018.70 1019.38 1020.67 1021.42 1020.48 1018.45 1016.73 1015.95 1015.52 1016.09 1016.48 1016.33 1016.26 1016.43 1016.54 1016.36 1016.03 1014.35 1014.24 1014.16 1013.95 1013.71 1013.48 1013.35 1013.13 1012.94 1012.45 1011.55 1011.25 1010.62 1010.08 1009.46 1008.46 1007.66 1006.76 1006.14 1005.64 1005.14 1004.24 1003.87 1003.57 1003.08 1003.07 1002.80
1020.17 1020.61 1021.38 1020.98 1020.35 1018.23 1016.66 1015.83 1015.63 1016.30 1016.02 1015.56 1015.78 1015.73 1015.79 1015.84 1015.13 1014.07 1013.78 1014.07 1013.94 1013.69 1013.50 1013.26 1012.78 1012.41 1011.83 1011.22 1010.96 1010.48 1009.91 1009.25 1008.59 1007.75 1007.17 1006.36 1005.71 1005.28 1003.99 1003.15 1003.20 1003.24 1003.08 1002.12
1020.00 1020.67 1021.23 1021.17 1020.34 1018.50 1016.08 1015.66 1015.67 1014.83 1014.45 1014.76 1014.91 1014.85 1014.88 1014.61 1014.37 1014.20 1014.01 1013.83 1013.89 1013.71 1013.26 1012.96 1012.67 1012.20 1011.66 1011.36 1011.08 1010.42 1009.91 1009.23 1008.35 1007.61 1007.37 1006.18 1005.13 1004.35 1003.52 1002.84 1002.26 1002.48 1002.66 1002.62
1019.18 1018.62 1019.28 1019.26 1017.23 1015.82 1015.35 1014.75 1013.82 1013.85 1014.05 1013.92 1014.10 1013.97 1014.17 1014.33 1014.16 1014.03 1013.95 1013.67 1013.46 1013.42 1013.16 1012.89 1012.63 1011.85 1011.11 1010.99 1010.90 1010.18 1009.36 1009.21 1008.57 1007.99 1006.83 1006.00 1005.25 1004.44 1002.82 1002.17 1002.06 1001.63 1001.69 1002.17
1017.10 1016.98 1017.24 1016.85 1014.91 1014.76 1013.91 1013.26 1013.29 1013.13 1013.26 1013.12 1013.25 1013.61 1014.05 1014.27 1014.14 1014.19 1014.06 1013.65 1013.43 1013.08 1012.91 1012.70 1012.23 1011.59 1010.76 1010.75 1010.62 1010.24 1009.65 1009.43 1008.87 1008.10 1007.09 1006.05 1004.91 1003.73 1002.26 1001.43 1001.24 1001.11 1000.39 1000.51
1015.46 1015.59 1015.23 1014.41 1013.62 1013.41 1012.94 1012.63 1012.55 1012.53 1012.65 1013.06 1013.56 1014.05 1014.50 1014.82 1014.52 1014.72 1014.23 1013.87 1013.54 1013.04 1012.61 1012.58 1012.17 1011.58 1010.60 1010.37 1010.00 1009.90 1009.56 1009.34 1008.53 1007.65 1006.47 1005.36 1004.36 1003.23 1001.66 1000.43 999.91 999.81 999.01 998.67
1013.82 1013.49 1014.09 1013.07 1012.35 1012.57 1012.22 1011.92 1012.33 1012.85 1013.34 1013.81 1014.28 1014.55 1014.95 1015.16 1015.01 1014.99 1014.30 1014.00 1013.65 1013.00 1012.46 1012.28 1011.95 1011.52 1010.65 1010.28 1009.64 1009.48 1009.37 1008.99 1008.13 1006.77 1005.75 1004.80 1003.90 1002.68 1001.45 1000.16 998.67 998.27 997.97 997.58
Thickness
5657 5638 5640 5669 5649 5655 5644 5633 5630 5653 5670 5653 5658 5661 5672 5691 5700 5708 5713 5716 5718 5724 5740 5739 5731 5721 5714 5711 5708 5705 5699 5699 5688 5677 5667 5661 5667 5660 5655 5650 5643 5636 5631 5626
5635 5625 5652 5651 5643 5633 5629 5627 5631 5650 5659 5641 5647 5663 5670 5683 5696 5718 5720 5720 5725 5728 5727 5731 5724 5720 5711 5711 5710 5704 5701 5693 5690 5687 5681 5671 5665 5660 5658 5653 5649 5641 5632 5623
5638 5641 5643 5637 5630 5630 5625 5614 5632 5628 5635 5635 5636 5661 5664 5689 5692 5706 5717 5719 5714 5712 5717 5726 5718 5706 5699 5700 5699 5701 5700 5696 5690 5683 5675 5665 5658 5650 5644 5642 5636 5632 5629 5627
5623 5638 5635 5620 5617 5627 5624 5629 5629 5622 5613 5607 5628 5637 5658 5687 5696 5689 5708 5714 5707 5708 5708 5705 5710 5710 5699 5700 5699 5698 5691 5685 5679 5673 5672 5671 5671 5664 5664 5655 5643 5633 5625 5620
5628 5624 5621 5615 5623 5616 5623 5628 5619 5617 5603 5595 5602 5596 5670 5672 5670 5681 5692 5699 5702 5699 5696 5700 5703 5704 5706 5703 5695 5693 5689 5688 5678 5672 5669 5660 5658 5666 5662 5645 5630 5621 5616 5609
5609 5616 5614 5622 5623 5617 5623 5614 5600 5576 5585 5586 5608 5612 5638 5653 5664 5671 5679 5681 5677 5679 5680 5683 5687 5689 5694 5689 5683 5681 5678 5674 5669 5662 5655 5657 5654 5643 5635 5633 5622 5612 5605 5601
5604 5604 5612 5614 5610 5605 5603 5593 5567 5565 5549 5599 5618 5599 5642 5662 5666 5669 5670 5668 5660 5652 5652 5652 5664 5670 5672 5676 5673 5666 5663 5661 5654 5647 5641 5639 5641 5633 5629 5621 5616 5609 5600 5595
5582 5601 5600 5602 5604 5597 5580 5579 5562 5555 5556 5605 5598 5595 5639 5661 5668 5659 5653 5650 5645 5639 5634 5641 5644 5643 5650 5654 5656 5650 5648 5645 5640 5634 5623 5616 5611 5610 5609 5605 5607 5602 5599 5595
5563 5574 5592 5589 5593 5592 5574 5564 5579 5560 5513 5520 5602 5636 5642 5649 5650 5642 5641 5636 5621 5622 5627 5628 5624 5620 5619 5623 5623 5623 5622 5620 5620 5622 5622 5621 5612 5605 5604 5596 5592 5588 5584 5583
5562 5556 5575 5577 5574 5569 5563 5563 5551 5535 5531 5517 5580 5582 5624 5631 5628 5623 5612 5602 5600 5609 5613 5616 5608 5598 5596 5599 5602 5598 5600 5604 5604 5601 5603 5604 5607 5604 5595 5589 5582 5576 5573 5570
5544 5530 5556 5555 5553 5558 5543 5539 5538 5534 5533 5533 5535 5572 5636 5612 5605 5599 5589 5583 5584 5589 5585 5581 5579 5578 5573 5577 5576 5570 5569 5571 5572 5573 5580 5584 5582 5576 5577 5576 5574 5574 5569 5565
5523 5514 5511 5541 5552 5544 5538 5537 5536 5524 5529 5528 5539 5550 5631 5606 5596 5572 5548 5534 5533 5531 5531 5536 5542 5548 5549 5543 5548 5553 5555 5553 5555 5560 5564 5567 5568 5562 5560 5563 5562 5557 5557 5553
5510 5496 5505 5508 5528 5510 5514 5522 5523 5523 5521 5513 5504 5526 5573 5587 5563 5489 5496 5501 5505 5504 5504 5505 5510 5515 5521 5523 5521 5521 5529 5533 5536 5537 5543 5547 5549 5550 5552 5556 5553 5550 5541 5538
5489 5493 5496 5501 5516 5517 5494 5501 5493 5477 5475 5497 5494 5494 5508 5481 5474 5457 5460 5459 5465 5468 5472 5478 5482 5484 5487 5490 5492 5497 5499 5505 5510 5518 5521 5527 5531 5536 5537 5536 5538 5536 5534 5531
5456 5467 5475 5473 5454 5455 5453 5455 5458 5462 5470 5457 5473 5481 5479 5427 5426 5440 5441 5436 5435 5442 5446 5450 5451 5452 5453 5457 5464 5469 5472 5472 5483 5492 5500 5509 5515 5521 5524 5523 5525 5524 5524 5516
5423 5420 5425 5428 5449 5443 5438 5454 5463 5459 5463 5461 5457 5460 5403 5400 5403 5408 5412 5417 5421 5420 5419 5422 5424 5434 5433 5427 5428 5434 5445 5450 5450 5463 5471 5480 5489 5497 5502 5503 5509 5510 5510 5500
5396 5386 5371 5396 5433 5400 5399 5442 5450 5449 5447 5415 5421 5389 5375 5378 5382 5383 5390 5391 5398 5401 5400 5402 5397 5405 5404 5405 5409 5413 5418 5423 5425 5430 5441 5448 5454 5468 5480 5483 5488 5490 5493 5487
5386 5379 5343 5361 5332 5309 5422 5404 5393 5386 5378 5375 5362 5352 5353 5356 5358 5352 5358 5357 5354 5357 5368 5375 5380 5382 5383 5381 5385 5390 5395 5401 5405 5412 5421 5427 5432 5444 5451 5458 5461 5467 5468 5470
5370 5366 5307 5301 5270 5368 5395 5371 5361 5349 5346 5339 5337 5341 5335 5330 5329 5339 5338 5335 5331 5330 5337 5341 5344 5348 5351 5353 5362 5363 5369 5372 5379 5388 5397 5404 5413 5420 5430 5436 5439 5443 5443 5448
5357 5352 5334 5265 5331 5300 5343 5340 5348 5336 5292 5314 5307 5305 5298 5299 5287 5329 5320 5316 5315 5313 5312 5311 5314 5317 5320 5326 5326 5335 5340 5347 5355 5366 5375 5381 5384 5390 5402 5405 5408 5414 5416 5422
5270 5249 5287 5288 5280 5285 5319 5329 5328 5279 5295 5293 5290 5293 5287 5280 5282 5296 5301 5289 5285 5285 5286 5288 5291 5293 5300 5303 5300 5303 5309 5315 5323 5333 5340 5348 5355 5362 5375 5384 5385 5387 5392 5403
5289 5248 5231 5196 5213 5240 5301 5304 5297 5297 5298 5288 5284 5283 5276 5276 5276 5271 5270 5268 5260 5258 5261 5261 5260 5268 5274 5271 5270 5277 5283 5286 5296 5305 5308 5319 5332 5343 5353 5362 5370 5372 5374 5377
5260 5281 5244 5251 5258 5296 5285 5289 5303 5289 5279 5284 5274 5277 5263 5257 5253 5250 5246 5246 5243 5236 5233 5232 5228 5238 5249 5246 5244 5251 5257 5257 5262 5269 5283 5295 5302 5313 5335 5342 5348 5356 5359 5358
5286 5287 5273 5276 5305 5288 5290 5291 5281 5276 5270 5275 5265 5251 5243 5233 5232 5226 5222 5223 5219 5217 5211 5206 5206 5210 5219 5215 5214 5215 5222 5221 5226 5235 5247 5264 5278 5294 5311 5322 5330 5336 5348 5348
5282 5268 5266 5271 5285 5276 5279 5276 5271 5270 5263 5251 5241 5232 5221 5210 5211 5201 5201 5198 5195 5194 5192 5183 5181 5181 5188 5186 5187 5186 5187 5186 5195 5205 5222 5238 5253 5270 5290 5305 5314 5321 5334 5341
5282 5279 5258 5258 5279 5265 5267 5272 5257 5248 5239 5226 5216 5210 5203 5195 5190 5183 5183 5179 5173 5172 5170 5162 5158 5153 5157 5156 5160 5158 5155 5155 5164 5182 5196 5211 5224 5241 5261 5279 5297 5306 5317 5325